Weather History for Jonesboro, AR

Change the Weather History Date:

Wednesday, February 6, 2013

  Actual Average Record
Temperature  
Mean Temperature 46 °F 39 °F  
Max Temperature 55 °F 49 °F 78 °F (1904)
Min Temperature 36 °F 30 °F 6 °F (1988)
Degree Days  
Heating Degree Days 19 26  
Month to date heating degree days 147 156  
Since 1 July heating degree days 2138 2452  
Cooling Degree Days 0 0  
Month to date cooling degree days 0 0  
Year to date cooling degree days 0 0  
Moisture  
Dew Point 38 °F    
Average Humidity 77    
Maximum Humidity 100    
Minimum Humidity 54    
Precipitation  
Precipitation 0.00 in 0.13 in 1.47 in (1958)
Month to date precipitation 0.14 0.78  
Year to date precipitation 5.51 4.21  
Snow  
Snow 0.00 in - 5.00 in (2003)
Month to date snowfall 0.0  
Since 1 July snowfall 7.0  
Snow Depth 0.00 in    
Sea Level Pressure  
Sea Level Pressure 30.13 in    
Wind  
Wind Speed 9 mph (ENE)    
Max Wind Speed 17 mph    
Max Gust Speed 21 mph    
Visibility 8 miles    
Events Fog    
T = Trace of Precipitation, MM = Missing Value Source: NWS Daily Summary

Daily Weather History Graph

Daily Weather History Graph

Search for Another Location

Airport:

Trip Planner

Search our weather history database for the weather conditions in past years. The results will help you decide how hot, cold, wet, or windy it might be!

Date:

Astronomy

Feb. 06, 2013 Rise Set
Actual Time 6:58 AM CST 5:35 PM CST
Civil Twilight 6:31 AM CST 6:02 PM CST
Nautical Twilight 6:01 AM CST 6:32 PM CST
Astronomical Twilight 5:31 AM CST 7:02 PM CST
Moon 3:38 AM CST (2/6) 1:57 PM CST (2/6)
Length of Visible Light 11h 30m
Length of Day
10h 36m
Waning Crescent, 17% of the Moon is Illuminated
Feb 6
Waning Crescent
Feb 10
New
Feb 17
First Quarter
Feb 25
Full
Mar 4
Last Quarter

Hourly Weather History & Observations

Time (CST) Temp. Windchill Dew Point Humidity Pressure Visibility Wind Dir Wind Speed Gust Speed Precip Events Conditions
12:09 AM 39.2 °F - 39.2 °F 100% 30.07 in 1.8 mi Calm Calm - N/A   Clear
12:13 AM 37.4 °F - 37.4 °F 100% 30.07 in 0.8 mi Calm Calm - N/A   Mist
12:18 AM 37.4 °F - 37.4 °F 100% 30.07 in 0.2 mi Calm Calm - N/A Fog Fog
12:53 AM 37.4 °F - 35.6 °F 93% 30.08 in 0.8 mi Calm Calm - N/A   Mist
12:57 AM 37.4 °F - 37.4 °F 100% 30.09 in 0.8 mi Calm Calm - N/A   Mist
1:02 AM 35.6 °F - 35.6 °F 100% 30.09 in 0.2 mi Calm Calm - N/A Fog Fog
1:53 AM 41.0 °F 35.2 °F 39.0 °F 93% 30.11 in 1.0 mi NNE 9.2 mph - N/A   Mist
1:56 AM 42.8 °F 38.0 °F 41.0 °F 93% 30.11 in 4.0 mi NNE 8.1 mph - N/A   Mostly Cloudy
2:03 AM 44.6 °F 39.2 °F 41.0 °F 87% 30.11 in 10.0 mi NNE 10.4 mph - N/A   Scattered Clouds
2:53 AM 46.0 °F 39.3 °F 39.0 °F 76% 30.12 in 10.0 mi NE 16.1 mph - N/A   Clear
3:53 AM 43.0 °F 36.8 °F 37.0 °F 80% 30.14 in 10.0 mi ENE 11.5 mph - N/A   Clear
4:53 AM 41.0 °F 34.7 °F 36.0 °F 82% 30.16 in 10.0 mi NE 10.4 mph - N/A   Clear
5:53 AM 39.9 °F 31.8 °F 35.1 °F 83% 30.17 in 10.0 mi ENE 15.0 mph - N/A   Clear
6:53 AM 37.9 °F 30.9 °F 34.0 °F 86% 30.20 in 10.0 mi ENE 10.4 mph - N/A   Clear
7:53 AM 39.0 °F 32.8 °F 35.1 °F 86% 30.21 in 9.0 mi ENE 9.2 mph - N/A   Clear
8:53 AM 43.0 °F 37.2 °F 36.0 °F 76% 30.23 in 10.0 mi ENE 10.4 mph - N/A   Clear
9:53 AM 46.9 °F - 36.0 °F 66% 30.25 in 10.0 mi ENE 10.4 mph - N/A   Clear
10:53 AM 50.0 °F - 37.0 °F 61% 30.20 in 10.0 mi East 17.3 mph 20.7 mph N/A   Clear
11:53 AM 52.0 °F - 37.9 °F 59% 30.19 in 10.0 mi East 10.4 mph - N/A   Clear
12:53 PM 54.0 °F - 37.9 °F 55% 30.19 in 10.0 mi East 8.1 mph - N/A   Clear
1:53 PM 54.0 °F - 39.0 °F 57% 30.14 in 10.0 mi East 9.2 mph - N/A   Clear
2:53 PM 54.0 °F - 39.0 °F 57% 30.13 in 10.0 mi East 9.2 mph - N/A   Clear
3:53 PM 53.1 °F - 39.9 °F 61% 30.12 in 10.0 mi East 6.9 mph - N/A   Clear
4:53 PM 52.0 °F - 41.0 °F 66% 30.10 in 10.0 mi ENE 9.2 mph - N/A   Clear
5:53 PM 50.0 °F - 41.0 °F 71% 30.09 in 10.0 mi ENE 10.4 mph - N/A   Clear
6:53 PM 48.9 °F - 41.0 °F 74% 30.11 in 10.0 mi ENE 4.6 mph - N/A   Clear
7:53 PM 48.9 °F - 39.9 °F 71% 30.10 in 10.0 mi NNE 6.9 mph - N/A   Clear
8:53 PM 48.9 °F - 39.0 °F 69% 30.09 in 10.0 mi NE 8.1 mph - N/A   Clear
9:53 PM 48.0 °F - 39.0 °F 71% 30.08 in 10.0 mi NE 4.6 mph - N/A   Clear
10:53 PM 48.0 °F - 37.9 °F 68% 30.05 in 10.0 mi NE 9.2 mph - N/A   Clear
11:53 PM 46.9 °F - 37.9 °F 71% 30.06 in 10.0 mi ENE 6.9 mph - N/A   Clear